Weather History for Tallahassee, FL

Change the Weather History Date:

Saturday, May 26, 2012

  Actual Average Record
Temperature  
Mean Temperature 85 °F 77 °F  
Max Temperature 100 °F 89 °F 100 °F (2012)
Min Temperature 69 °F 65 °F 41 °F (1979)
Degree Days  
Heating Degree Days 0    
Month to date heating degree days 0  
Since 1 July heating degree days 1055  
Cooling Degree Days 20    
Month to date cooling degree days 315  
Year to date cooling degree days 685  
Growing Degree Days 34 (Base 50)    
Moisture  
Dew Point 63 °F    
Average Humidity 54    
Maximum Humidity 84    
Minimum Humidity 24    
Precipitation  
Precipitation 0.00 in 0.15 in 3.00 in (1973)
Month to date precipitation 4.05 2.68  
Year to date precipitation 16.67 20.87  
Sea Level Pressure  
Sea Level Pressure 30.04 in    
Wind  
Wind Speed 3 mph (NE)    
Max Wind Speed 13 mph    
Max Gust Speed 22 mph    
Visibility 10 miles    
Events      
T = Trace of Precipitation, MM = Missing Value Source: NWS Daily Summary

Daily Weather History Graph

Daily Weather History Graph

Search for Another Location

Airport:

Trip Planner

Search our weather history database for the weather conditions in past years. The results will help you decide how hot, cold, wet, or windy it might be!

Date:

Astronomy

May. 26, 2012 Rise Set
Actual Time 6:37 AM EDT 8:31 PM EDT
Civil Twilight 6:10 AM EDT 8:58 PM EDT
Nautical Twilight 5:38 AM EDT 9:31 PM EDT
Astronomical Twilight 5:03 AM EDT 10:06 PM EDT
Moon 11:28 AM EDT (5/26) 12:14 AM EDT (5/26)
Length of Visible Light 14h 48m
Length of Day
13h 54m
Waxing Crescent, 28% of the Moon is Illuminated
May 26
Waxing Crescent
May 28
First Quarter
Jun 4
Full
Jun 11
Last Quarter
Jun 19
New

Hourly Weather History & Observations

Time (EDT) Temp. Heat Index Dew Point Humidity Pressure Visibility Wind Dir Wind Speed Gust Speed Precip Events Conditions
12:53 AM 79.0 °F - 63.0 °F 58% 30.06 in 10.0 mi Calm Calm - N/A   Clear
1:53 AM 79.0 °F - 63.0 °F 58% 30.06 in 10.0 mi East 5.8 mph - N/A   Scattered Clouds
2:53 AM 77.0 °F - 63.0 °F 62% 30.05 in 10.0 mi ESE 3.5 mph - N/A   Partly Cloudy
3:53 AM 75.0 °F - 64.0 °F 69% 30.05 in 10.0 mi ESE 3.5 mph - N/A   Clear
4:53 AM 72.0 °F - 64.0 °F 76% 30.06 in 10.0 mi Calm Calm - N/A   Clear
5:53 AM 71.1 °F - 64.0 °F 78% 30.07 in 10.0 mi Calm Calm - N/A   Mostly Cloudy
6:53 AM 70.0 °F - 64.0 °F 81% 30.08 in 10.0 mi Calm Calm - N/A   Scattered Clouds
7:53 AM 73.0 °F - 64.9 °F 76% 30.09 in 10.0 mi Calm Calm - N/A   Mostly Cloudy
8:53 AM 80.1 °F 82.1 °F 66.0 °F 62% 30.10 in 10.0 mi Calm Calm - N/A   Partly Cloudy
9:53 AM 84.9 °F 87.1 °F 66.0 °F 53% 30.10 in 10.0 mi SSW 3.5 mph - N/A   Scattered Clouds
10:53 AM 89.1 °F 91.0 °F 64.9 °F 45% 30.09 in 10.0 mi West 3.5 mph - N/A   Scattered Clouds
11:53 AM 93.9 °F 95.2 °F 63.0 °F 36% 30.09 in 10.0 mi ESE 3.5 mph - N/A   Partly Cloudy
12:53 PM 96.1 °F 96.0 °F 60.1 °F 30% 30.06 in 10.0 mi NE 4.6 mph - N/A   Scattered Clouds
1:53 PM 95.0 °F 94.8 °F 60.1 °F 31% 30.05 in 10.0 mi NNW 8.1 mph - N/A   Scattered Clouds
2:53 PM 98.1 °F 97.7 °F 59.0 °F 27% 30.02 in 10.0 mi NNE 5.8 mph - N/A   Scattered Clouds
3:53 PM 99.0 °F 98.1 °F 57.9 °F 25% 30.01 in 10.0 mi NNE 12.7 mph 17.3 mph N/A   Partly Cloudy
4:53 PM 100.0 °F 99.7 °F 57.9 °F 25% 29.99 in 10.0 mi Variable 4.6 mph - N/A   Mostly Cloudy
5:53 PM 97.0 °F 95.7 °F 57.0 °F 26% 29.97 in 10.0 mi ENE 8.1 mph - N/A   Scattered Clouds
6:53 PM 96.1 °F 95.2 °F 57.9 °F 28% 29.96 in 10.0 mi NNE 3.5 mph - N/A   Partly Cloudy
7:53 PM 93.9 °F 93.6 °F 60.1 °F 32% 29.96 in 10.0 mi Calm Calm - N/A   Partly Cloudy
8:53 PM 87.1 °F 87.8 °F 63.0 °F 44% 29.96 in 10.0 mi Calm Calm - N/A   Clear
9:53 PM 84.0 °F 86.5 °F 66.9 °F 56% 29.98 in 10.0 mi SW 5.8 mph - N/A   Clear
10:53 PM 82.9 °F 85.0 °F 66.0 °F 56% 29.99 in 10.0 mi Calm Calm - N/A   Scattered Clouds
11:53 PM 81.0 °F 83.3 °F 66.9 °F 62% 29.99 in 10.0 mi West 3.5 mph - N/A   Scattered Clouds